CZ-6A DEB, 54353

Orbit data source: Space-Track

CZ-6A DEB, 54353 is space debris in SSO originally from a launch on Fri, 11 Nov 2022 UTC launched from the Taiyaun Space Center, China (TSC). Debris objects in space refer to the collection of defunct objects orbiting the Earth. Examples of debris include non-operational satellites, rocket bodies, and fragments generated from explosions, collisions, or faulty payload assembly.

Loading next visibility...
Identifier
54353, 2022-151CY
Orbit
SSO
Country
Flag of CNCN / PRC
Related business
Manufacturer
SAST
Mission
Spacecraft
Bus & Motor
Unknown
Mass
Unknown
Launch date (UTC)
2022-11-11 (4 years ago)
Launch vehicle
Unknown
Launch site
Taiyaun Space Center, China (TSC)
Object type
Payload
Rocket body
Debris
Shape & HBR
Unknown shape, 0.1 m
Radar Cross Section
Medium (>0.1 m² and <1 m²)

Expand to show TLE details & history
Last TLE update: 13 hours ago

TLE from 13 hours ago
0 CZ-6A DEB
1 54353U 22151CY  26236.32273897  .00014203  00000-0  21840-2 0  9998
2 54353  99.0864  13.0450 0105151 150.5584 210.1598 14.69936167199582
Epoch: 2026-08-24T07:44Z
TLE epoch observation values (Epoch: 2026-08-24T07:44:44.647Z)
Latitude
0.00001°
Longitude
-75.74713°
Altitude
728.449 km
Speed
7.457 km/s
True Right ascension
00h 52m 10s
True Declination
0° 00' 00"
Sunlit
Object was in full shadow at epoch
Visualization orbit readout
Latitude
Unknown
Longitude
Unknown
Altitude
Unknown
Speed
Unknown
Apparent Right ascension
Unknown
Apparent Declination
Unknown
Sunlit
N/A
Visualization observer readout
Local Sidereal Time
12:07:07
Azimuth
Unknown
Elevation
Unknown
Doppler factor
Unknown
Orbital elements
Apogee altitude
732.372 km
Perigee altitude
584.393 km
Semi-major axis
7,036.519 km
Eccentricity
0.01052
Inclination
99.0864°
RAAN
13.045°
Arg. of periapsis
150.5584°
True anomaly
209.56124°
Mean anomaly
210.1598°
Eccentric anomaly
209.85984°
Mean motion
3.67711 °/min
Orbital period
97.9 mins
BSTAR
0.002184
Loading maneuver chart data...
Computing Atmospheric mass density...
Loading historical data...
Loading historical data...
Loading historical data...
Loading historical data...
Loading historical data...
Loading historical data...
Loading historical data...

Documentation

Showing up to 5 results
|